Volver al catálogo

STARLINK-38274

ActivoComunicacionesSSO
NORAD 100380·PAYLOAD·🇺🇸 United States

Lanzado Aug 19, 2026 desde Vandenberg Space Force Base

Loading…

Próximos Pases (próximas 24 horas)

TLE

ActualizadoSource: Space-Track

Época: Sep 14, 2026, 07:59 UTC

1 A0380U 26190K   26257.33267616  .00165743  00000-0  10889-2 0  9999
2 A0380  97.2837 111.3679 0002012  78.3173 281.8318 15.75226703  5409

Sigue STARLINK-38274 en tiempo real con AllMySat

Download on the App Store